When you browse on this site, cookies collect data to enhance your experience and personalize the content and advertising you see.
Visit our Privacy Policy to learn more. By continuing to use the site, you agree to this use of cookies and data.
  • In Romania
  • List of Countries
  • For 7 days
  • Water Temperature
  • Satellite Maps
  • Weather Map
  • Weather Widgets
  • user-avatar
    Login

    Hourly Weather Adelaide

    Today, 21 April, Sunday

    Time Temperature Precipitation Wind Pressure Humidity
    00:00 +22°C° 0 mm 5 mps 756 mmHg 64%
    01:00 +21°C° 0 mm 5 mps 757 mmHg 69%
    02:00 +20°C° 0 mm 5 mps 757 mmHg 74%
    03:00 +19°C° 0 mm 5 mps 758 mmHg 79%
    04:00 +19°C° 0.1 mm 5 mps 758 mmHg 79%
    05:00 +17°C° 0.1 mm 5 mps 759 mmHg 78%
    06:00 +18°C° 0.1 mm 4 mps 759 mmHg 78%
    07:00 +18°C° 0.2 mm 4 mps 760 mmHg 74%
    08:00 +18°C° 0.2 mm 4 mps 760 mmHg 71%
    09:00 +18°C° 0.2 mm 4 mps 761 mmHg 67%
    10:00 +19°C° 0 mm 4 mps 761 mmHg 62%
    11:00 +20°C° 0 mm 4 mps 761 mmHg 57%
    12:00 +20°C° 0 mm 4 mps 761 mmHg 52%
    13:00 +20°C° 0 mm 4 mps 761 mmHg 51%
    14:00 +20°C° 0 mm 4 mps 761 mmHg 50%
    15:00 +20°C° 0 mm 4 mps 761 mmHg 49%
    16:00 +19°C° 0 mm 3 mps 762 mmHg 53%
    17:00 +18°C° 0 mm 3 mps 762 mmHg 56%
    18:00 +17°C° 0 mm 3 mps 763 mmHg 60%
    19:00 +16°C° 0 mm 3 mps 763 mmHg 63%
    20:00 +16°C° 0 mm 3 mps 763 mmHg 67%
    21:00 +14°C° 0 mm 3 mps 764 mmHg 70%
    22:00 +14°C° 0 mm 3 mps 764 mmHg 71%
    23:00 +14°C° 0 mm 3 mps 764 mmHg 71%

    Tomorrow, 22 April, Monday

    Time Temperature Precipitation Wind Pressure Humidity
    00:00 +13°C° 0 mm 3 mps 764 mmHg 71%
    01:00 +13°C° 0 mm 3 mps 764 mmHg 72%
    02:00 +14°C° 0 mm 2 mps 765 mmHg 72%
    03:00 +14°C° 0 mm 2 mps 765 mmHg 72%
    04:00 +14°C° 0 mm 2 mps 765 mmHg 73%
    05:00 +13°C° 0 mm 2 mps 765 mmHg 74%
    06:00 +13°C° 0 mm 2 mps 765 mmHg 75%
    07:00 +15°C° 0 mm 2 mps 766 mmHg 69%
    08:00 +16°C° 0 mm 2 mps 766 mmHg 62%
    09:00 +17°C° 0 mm 3 mps 766 mmHg 56%
    10:00 +18°C° 0 mm 3 mps 766 mmHg 54%
    11:00 +18°C° 0 mm 3 mps 766 mmHg 51%
    12:00 +19°C° 0 mm 3 mps 766 mmHg 48%
    13:00 +19°C° 0 mm 4 mps 766 mmHg 48%
    14:00 +19°C° 0 mm 4 mps 765 mmHg 48%
    15:00 +19°C° 0 mm 4 mps 765 mmHg 48%
    16:00 +18°C° 0 mm 4 mps 765 mmHg 53%
    17:00 +17°C° 0 mm 4 mps 766 mmHg 58%
    18:00 +14°C° 0 mm 4 mps 766 mmHg 64%
    19:00 +14°C° 0 mm 3 mps 767 mmHg 66%
    20:00 +13°C° 0 mm 3 mps 767 mmHg 69%
    21:00 +13°C° 0 mm 3 mps 767 mmHg 72%
    22:00 +13°C° 0 mm 3 mps 767 mmHg 74%
    23:00 +13°C° 0 mm 3 mps 767 mmHg 75%

    Day after tomorrow, 23 April, Tuesday

    Time Temperature Precipitation Wind Pressure Humidity
    00:00 +12°C° 0 mm 3 mps 767 mmHg 77%
    01:00 +12°C° 0 mm 3 mps 767 mmHg 77%
    02:00 +12°C° 0 mm 3 mps 767 mmHg 77%
    03:00 +12°C° 0 mm 3 mps 766 mmHg 78%
    04:00 +12°C° 0 mm 3 mps 767 mmHg 77%
    05:00 +12°C° 0 mm 2 mps 767 mmHg 76%
    06:00 +12°C° 0 mm 2 mps 767 mmHg 76%
    07:00 +14°C° 0 mm 2 mps 767 mmHg 68%
    08:00 +16°C° 0 mm 2 mps 768 mmHg 59%
    09:00 +18°C° 0 mm 2 mps 768 mmHg 51%
    10:00 +19°C° 0 mm 2 mps 768 mmHg 46%
    11:00 +21°C° 0 mm 2 mps 767 mmHg 40%
    12:00 +23°C° 0 mm 2 mps 767 mmHg 35%
    13:00 +23°C° 0 mm 2 mps 766 mmHg 36%
    14:00 +22°C° 0 mm 3 mps 766 mmHg 38%
    15:00 +22°C° 0 mm 3 mps 765 mmHg 39%
    16:00 +20°C° 0 mm 3 mps 766 mmHg 46%
    17:00 +19°C° 0 mm 3 mps 766 mmHg 52%
    18:00 +17°C° 0 mm 4 mps 766 mmHg 59%
    19:00 +16°C° 0 mm 3 mps 766 mmHg 61%
    20:00 +14°C° 0 mm 3 mps 767 mmHg 64%
    21:00 +14°C° 0 mm 3 mps 767 mmHg 67%
    22:00 +14°C° 0 mm 3 mps 767 mmHg 71%
    23:00 +13°C° 0 mm 3 mps 767 mmHg 74%

    24 April, Wednesday

    Time Temperature Precipitation Wind Pressure Humidity
    00:00 +13°C° 0 mm 3 mps 766 mmHg 78%
    01:00 +13°C° 0 mm 3 mps 766 mmHg 80%
    02:00 +13°C° 0 mm 3 mps 766 mmHg 83%
    03:00 +13°C° 0 mm 3 mps 766 mmHg 85%
    04:00 +14°C° 0 mm 2 mps 766 mmHg 84%
    05:00 +14°C° 0 mm 2 mps 766 mmHg 83%
    06:00 +13°C° 0 mm 2 mps 766 mmHg 82%
    07:00 +15°C° 0 mm 1 mps 767 mmHg 72%
    08:00 +18°C° 0 mm 1 mps 767 mmHg 61%
    09:00 +20°C° 0 mm 1 mps 767 mmHg 51%
    10:00 +21°C° 0 mm 1 mps 767 mmHg 47%
    11:00 +23°C° 0 mm 2 mps 767 mmHg 43%
    12:00 +24°C° 0 mm 2 mps 766 mmHg 39%
    13:00 +22°C° 0 mm 3 mps 766 mmHg 41%
    14:00 +22°C° 0 mm 3 mps 765 mmHg 44%
    15:00 +22°C° 0 mm 4 mps 765 mmHg 46%
    16:00 +21°C° 0 mm 3 mps 765 mmHg 55%
    17:00 +19°C° 0 mm 3 mps 766 mmHg 64%
    18:00 +18°C° 0 mm 3 mps 766 mmHg 73%
    19:00 +17°C° 0 mm 3 mps 766 mmHg 77%
    20:00 +16°C° 0 mm 3 mps 767 mmHg 81%
    21:00 +16°C° 0 mm 2 mps 767 mmHg 85%
    22:00 +15°C° 0 mm 2 mps 767 mmHg 87%
    23:00 +15°C° 0 mm 2 mps 767 mmHg 88%

    25 April, Thursday

    Time Temperature Precipitation Wind Pressure Humidity
    00:00 +15°C° 0 mm 2 mps 766 mmHg 89%
    01:00 +15°C° 0 mm 1 mps 766 mmHg 89%
    02:00 +15°C° 0 mm 1 mps 766 mmHg 89%
    03:00 +14°C° 0 mm 1 mps 766 mmHg 90%
    04:00 +14°C° 0 mm 1 mps 766 mmHg 90%
    05:00 +14°C° 0 mm 1 mps 766 mmHg 90%
    06:00 +13°C° 0 mm 0 mps 767 mmHg 90%
    07:00 +16°C° 0 mm 1 mps 767 mmHg 83%
    08:00 +18°C° 0 mm 1 mps 767 mmHg 75%
    09:00 +20°C° 0 mm 1 mps 767 mmHg 68%
    10:00 +20°C° 0 mm 2 mps 767 mmHg 63%
    11:00 +21°C° 0 mm 2 mps 767 mmHg 59%
    12:00 +22°C° 0 mm 3 mps 766 mmHg 54%
    13:00 +21°C° 0 mm 3 mps 766 mmHg 55%
    14:00 +21°C° 0 mm 3 mps 766 mmHg 57%
    15:00 +21°C° 0 mm 3 mps 765 mmHg 58%
    16:00 +20°C° 0 mm 3 mps 765 mmHg 64%
    17:00 +18°C° 0 mm 3 mps 766 mmHg 70%
    18:00 +17°C° 0 mm 2 mps 766 mmHg 76%
    19:00 +17°C° 0 mm 2 mps 766 mmHg 78%
    20:00 +16°C° 0 mm 2 mps 767 mmHg 81%
    21:00 +16°C° 0 mm 2 mps 767 mmHg 83%
    22:00 +15°C° 0 mm 2 mps 767 mmHg 85%
    23:00 +15°C° 0 mm 2 mps 767 mmHg 87%

    26 April, Friday

    Time Temperature Precipitation Wind Pressure Humidity
    00:00 +14°C° 0 mm 2 mps 766 mmHg 89%
    01:00 +14°C° 0 mm 2 mps 766 mmHg 89%
    02:00 +14°C° 0 mm 2 mps 766 mmHg 89%
    03:00 +14°C° 0 mm 2 mps 766 mmHg 89%
    04:00 +14°C° 0 mm 2 mps 767 mmHg 89%
    05:00 +14°C° 0 mm 2 mps 767 mmHg 88%
    06:00 +14°C° 0 mm 1 mps 767 mmHg 88%
    07:00 +15°C° 0 mm 2 mps 768 mmHg 81%
    08:00 +16°C° 0 mm 2 mps 768 mmHg 74%
    09:00 +18°C° 0 mm 2 mps 768 mmHg 66%
    10:00 +18°C° 0 mm 2 mps 768 mmHg 63%
    11:00 +19°C° 0 mm 2 mps 767 mmHg 60%
    12:00 +20°C° 0 mm 2 mps 767 mmHg 57%
    13:00 +20°C° 0 mm 3 mps 767 mmHg 57%
    14:00 +20°C° 0 mm 3 mps 766 mmHg 57%
    15:00 +20°C° 0 mm 3 mps 766 mmHg 57%
    16:00 +18°C° 0 mm 3 mps 766 mmHg 62%
    17:00 +17°C° 0 mm 3 mps 767 mmHg 68%
    18:00 +16°C° 0 mm 3 mps 767 mmHg 74%
    19:00 +15°C° 0 mm 2 mps 767 mmHg 76%
    20:00 +14°C° 0 mm 2 mps 767 mmHg 79%
    21:00 +14°C° 0 mm 2 mps 768 mmHg 82%
    22:00 +14°C° 0 mm 2 mps 767 mmHg 83%
    23:00 +13°C° 0 mm 2 mps 767 mmHg 84%
    Show more